When you browse on this site, cookies collect data to enhance your experience and personalize the content and advertising you see.
Visit our Privacy Policy to learn more. By continuing to use the site, you agree to this use of cookies and data.
  • In Portugal
  • List of Countries
  • For 7 days
  • Water Temperature
  • Weather Map
  • Weather Widgets
  • user-avatar
    Login

    Hourly Weather Marinovka

    Today, 11 December, Wednesday

    Time Temperature Precipitation Wind Pressure Humidity
    00:00 0°C° 0 mm 3 mps 748 mmHg 95%
    01:00 0°C° 0 mm 3 mps 748 mmHg 95%
    02:00 0°C° 0 mm 3 mps 748 mmHg 94%
    03:00 0°C° 0 mm 3 mps 748 mmHg 94%
    04:00 0°C° 0 mm 3 mps 748 mmHg 95%
    05:00 0°C° 0 mm 3 mps 748 mmHg 95%
    06:00 0°C° 0 mm 3 mps 748 mmHg 95%
    07:00 0°C° 0 mm 3 mps 748 mmHg 95%
    08:00 0°C° 0 mm 3 mps 748 mmHg 96%
    09:00 0°C° 0 mm 3 mps 748 mmHg 96%
    10:00 0°C° 0 mm 3 mps 748 mmHg 96%
    11:00 0°C° 0 mm 3 mps 749 mmHg 96%
    12:00 +1°C° 0 mm 3 mps 749 mmHg 97%
    13:00 +1°C° 0 mm 2 mps 749 mmHg 97%
    14:00 +1°C° 0 mm 2 mps 749 mmHg 97%
    15:00 +1°C° 0 mm 2 mps 749 mmHg 97%
    16:00 +1°C° 0 mm 2 mps 749 mmHg 97%
    17:00 +1°C° 0 mm 2 mps 750 mmHg 97%
    18:00 +1°C° 0 mm 2 mps 750 mmHg 97%
    19:00 +1°C° 0 mm 2 mps 750 mmHg 97%
    20:00 +1°C° 0 mm 2 mps 751 mmHg 97%
    21:00 +1°C° 0 mm 2 mps 751 mmHg 97%
    22:00 +1°C° 0 mm 2 mps 751 mmHg 97%
    23:00 +1°C° 0 mm 2 mps 751 mmHg 97%

    Tomorrow, 12 December, Thursday

    Time Temperature Precipitation Wind Pressure Humidity
    00:00 +1°C° 0 mm 2 mps 751 mmHg 97%
    01:00 -1°C° 0 mm 2 mps 752 mmHg 95%
    02:00 -1°C° 0 mm 2 mps 752 mmHg 93%
    03:00 -1°C° 0 mm 2 mps 752 mmHg 91%
    04:00 -1°C° 0 mm 2 mps 752 mmHg 90%
    05:00 -2°C° 0 mm 2 mps 752 mmHg 90%
    06:00 -2°C° 0 mm 2 mps 752 mmHg 89%
    07:00 0°C° 0 mm 1 mps 753 mmHg 89%
    08:00 -1°C° 0 mm 1 mps 753 mmHg 89%
    09:00 -1°C° 0 mm 1 mps 754 mmHg 89%
    10:00 -1°C° 0 mm 1 mps 753 mmHg 84%
    11:00 0°C° 0 mm 1 mps 753 mmHg 80%
    12:00 0°C° 0 mm 1 mps 753 mmHg 76%
    13:00 0°C° 0 mm 1 mps 753 mmHg 76%
    14:00 0°C° 0 mm 1 mps 753 mmHg 77%
    15:00 0°C° 0 mm 1 mps 753 mmHg 77%
    16:00 0°C° 0 mm 1 mps 753 mmHg 79%
    17:00 -3°C° 0 mm 2 mps 753 mmHg 80%
    18:00 -3°C° 0 mm 2 mps 753 mmHg 81%
    19:00 -3°C° 0 mm 2 mps 753 mmHg 80%
    20:00 -3°C° 0 mm 2 mps 753 mmHg 80%
    21:00 -4°C° 0 mm 2 mps 753 mmHg 79%
    22:00 -4°C° 0 mm 2 mps 753 mmHg 79%
    23:00 -4°C° 0 mm 2 mps 753 mmHg 78%

    Day after tomorrow, 13 December, Friday

    Time Temperature Precipitation Wind Pressure Humidity
    00:00 -4°C° 0 mm 2 mps 753 mmHg 78%
    01:00 -4°C° 0 mm 2 mps 752 mmHg 77%
    02:00 -4°C° 0 mm 2 mps 752 mmHg 76%
    03:00 -4°C° 0 mm 2 mps 752 mmHg 74%
    04:00 -4°C° 0 mm 2 mps 752 mmHg 76%
    05:00 -5°C° 0 mm 3 mps 752 mmHg 77%
    06:00 -6°C° 0 mm 3 mps 751 mmHg 79%
    07:00 -6°C° 0 mm 3 mps 752 mmHg 80%
    08:00 -6°C° 0 mm 3 mps 752 mmHg 81%
    09:00 -7°C° 0 mm 4 mps 752 mmHg 83%
    10:00 -7°C° 0 mm 4 mps 752 mmHg 79%
    11:00 -5°C° 0 mm 4 mps 752 mmHg 75%
    12:00 -5°C° 0 mm 4 mps 751 mmHg 71%
    13:00 -5°C° 0 mm 4 mps 751 mmHg 68%
    14:00 -5°C° 0 mm 3 mps 751 mmHg 65%
    15:00 -5°C° 0 mm 3 mps 751 mmHg 62%
    16:00 -5°C° 0 mm 3 mps 751 mmHg 64%
    17:00 -6°C° 0 mm 3 mps 751 mmHg 66%
    18:00 -6°C° 0 mm 3 mps 751 mmHg 68%
    19:00 -6°C° 0 mm 3 mps 751 mmHg 67%
    20:00 -7°C° 0 mm 4 mps 751 mmHg 67%
    21:00 -8°C° 0 mm 4 mps 751 mmHg 66%
    22:00 -8°C° 0 mm 4 mps 751 mmHg 66%
    23:00 -8°C° 0 mm 4 mps 751 mmHg 66%

    14 December, Saturday

    Time Temperature Precipitation Wind Pressure Humidity
    00:00 -8°C° 0 mm 4 mps 751 mmHg 65%
    01:00 -8°C° 0 mm 4 mps 751 mmHg 66%
    02:00 -8°C° 0 mm 4 mps 751 mmHg 66%
    03:00 -9°C° 0 mm 4 mps 751 mmHg 66%
    04:00 -9°C° 0 mm 4 mps 751 mmHg 67%
    05:00 -9°C° 0 mm 4 mps 751 mmHg 68%
    06:00 -9°C° 0 mm 4 mps 751 mmHg 68%
    07:00 -9°C° 0 mm 4 mps 751 mmHg 70%
    08:00 -9°C° 0 mm 4 mps 751 mmHg 71%
    09:00 -9°C° 0 mm 4 mps 751 mmHg 72%
    10:00 -9°C° 0 mm 4 mps 751 mmHg 71%
    11:00 -8°C° 0 mm 5 mps 751 mmHg 69%
    12:00 -7°C° 0 mm 5 mps 751 mmHg 68%
    13:00 -7°C° 0 mm 5 mps 751 mmHg 68%
    14:00 -7°C° 0 mm 5 mps 751 mmHg 68%
    15:00 -7°C° 0 mm 5 mps 750 mmHg 68%
    16:00 -7°C° 0 mm 5 mps 750 mmHg 69%
    17:00 -7°C° 0 mm 5 mps 750 mmHg 70%
    18:00 -7°C° 0 mm 5 mps 750 mmHg 71%
    19:00 -7°C° 0 mm 5 mps 751 mmHg 73%
    20:00 -7°C° 0 mm 5 mps 751 mmHg 75%
    21:00 -6°C° 0 mm 6 mps 751 mmHg 77%
    22:00 -6°C° 0 mm 5 mps 751 mmHg 78%
    23:00 -6°C° 0 mm 5 mps 750 mmHg 78%

    15 December, Sunday

    Time Temperature Precipitation Wind Pressure Humidity
    00:00 -6°C° 0 mm 5 mps 750 mmHg 79%
    01:00 -6°C° 0.1 mm 5 mps 750 mmHg 80%
    02:00 -6°C° 0.1 mm 5 mps 750 mmHg 82%
    03:00 -6°C° 0.1 mm 6 mps 750 mmHg 83%
    04:00 -6°C° 0.1 mm 6 mps 750 mmHg 84%
    05:00 -5°C° 0.1 mm 6 mps 749 mmHg 85%
    06:00 -5°C° 0.1 mm 6 mps 749 mmHg 85%
    07:00 -5°C° 0.1 mm 6 mps 749 mmHg 86%
    08:00 -5°C° 0.1 mm 6 mps 749 mmHg 86%
    09:00 -5°C° 0.1 mm 6 mps 749 mmHg 86%
    10:00 -4°C° 0.1 mm 6 mps 749 mmHg 85%
    11:00 -4°C° 0.1 mm 6 mps 749 mmHg 84%
    12:00 -4°C° 0.1 mm 6 mps 749 mmHg 83%
    13:00 -4°C° 0.1 mm 7 mps 748 mmHg 84%
    14:00 -4°C° 0.1 mm 7 mps 748 mmHg 85%
    15:00 -3°C° 0.1 mm 7 mps 748 mmHg 86%
    16:00 -3°C° 0 mm 7 mps 747 mmHg 87%
    17:00 -3°C° 0 mm 7 mps 747 mmHg 89%
    18:00 -3°C° 0 mm 7 mps 747 mmHg 90%
    19:00 -3°C° 0.2 mm 7 mps 747 mmHg 91%
    20:00 -2°C° 0.2 mm 7 mps 746 mmHg 92%
    21:00 -2°C° 0.2 mm 7 mps 746 mmHg 93%
    22:00 -2°C° 0.6 mm 7 mps 746 mmHg 93%
    23:00 -2°C° 0.6 mm 7 mps 746 mmHg 94%

    16 December, Monday

    Time Temperature Precipitation Wind Pressure Humidity
    00:00 -1°C° 0.6 mm 7 mps 746 mmHg 94%
    01:00 -1°C° 0.7 mm 6 mps 745 mmHg 95%
    02:00 0°C° 0.7 mm 5 mps 745 mmHg 95%
    03:00 0°C° 0.7 mm 5 mps 745 mmHg 95%
    04:00 0°C° 0.1 mm 5 mps 746 mmHg 94%
    05:00 -1°C° 0.1 mm 5 mps 746 mmHg 93%
    06:00 -2°C° 0.1 mm 6 mps 746 mmHg 92%
    07:00 -1°C° 0 mm 5 mps 747 mmHg 92%
    08:00 -2°C° 0 mm 5 mps 747 mmHg 92%
    09:00 -3°C° 0 mm 4 mps 748 mmHg 92%
    10:00 -2°C° 0 mm 4 mps 748 mmHg 86%
    11:00 -1°C° 0 mm 5 mps 748 mmHg 80%
    12:00 -1°C° 0 mm 5 mps 748 mmHg 75%
    13:00 -2°C° 0 mm 6 mps 748 mmHg 73%
    14:00 -2°C° 0 mm 6 mps 747 mmHg 72%
    15:00 -2°C° 0 mm 6 mps 747 mmHg 70%
    16:00 -2°C° 0.1 mm 7 mps 747 mmHg 70%
    17:00 -2°C° 0.1 mm 7 mps 747 mmHg 69%
    18:00 -2°C° 0.1 mm 7 mps 747 mmHg 69%
    19:00 -2°C° 0 mm 6 mps 746 mmHg 73%
    20:00 -2°C° 0 mm 6 mps 746 mmHg 77%
    21:00 -2°C° 0 mm 6 mps 746 mmHg 82%
    22:00 -2°C° 0 mm 6 mps 746 mmHg 84%
    23:00 -2°C° 0 mm 6 mps 747 mmHg 87%
    Show more